TimeEST,TemperatureF,Dew PointF,Humidity,Sea Level PressureIn,VisibilityMPH,Wind Direction,Wind SpeedMPH,Gust SpeedMPH,PrecipitationIn,Events,Conditions,WindDirDegrees,DateUTC
12:15 AM,41.0,37.4,87,30.03,5.0,East,6.9,-,N/A,Rain,Light Rain,100,2013-02-23 05:15:00
12:35 AM,41.0,37.4,87,30.01,7.0,East,8.1,-,N/A,Rain,Rain,90,2013-02-23 05:35:00
12:55 AM,41.0,37.4,87,30.04,5.0,ENE,3.5,-,N/A,Rain,Rain,60,2013-02-23 05:55:00
1:15 AM,41.0,37.4,87,30.04,1.2,East,4.6,-,N/A,Rain,Light Rain,90,2013-02-23 06:15:00
1:35 AM,41.0,37.4,87,30.03,2.5,ENE,5.8,-,N/A,Rain,Rain,70,2013-02-23 06:35:00
1:55 AM,41.0,37.4,87,30.02,3.0,ENE,6.9,-,N/A,Rain,Rain,70,2013-02-23 06:55:00
2:15 AM,41.0,37.4,87,29.98,4.0,ENE,10.4,-,N/A,Rain,Rain,60,2013-02-23 07:15:00
2:35 AM,41.0,37.4,87,29.99,4.0,East,6.9,-,N/A,Rain,Rain,90,2013-02-23 07:35:00
2:55 AM,41.0,37.4,87,29.98,5.0,ENE,4.6,-,N/A,Rain,Rain,70,2013-02-23 07:55:00
3:15 AM,42.8,37.4,81,29.98,4.0,ENE,4.6,-,N/A,Rain,Rain,60,2013-02-23 08:15:00
3:35 AM,42.8,37.4,81,29.93,2.0,East,6.9,-,N/A,Rain,Rain,80,2013-02-23 08:35:00
3:55 AM,42.8,37.4,81,29.94,1.2,Calm,Calm,-,N/A,Rain,Light Rain,0,2013-02-23 08:55:00
4:15 AM,42.8,37.4,81,29.92,7.0,East,8.1,-,N/A,Rain,Light Rain,100,2013-02-23 09:15:00
4:35 AM,42.8,37.4,81,29.93,5.0,ENE,5.8,-,N/A,Rain,Light Rain,70,2013-02-23 09:35:00
4:55 AM,42.8,37.4,81,29.92,1.8,ENE,5.8,-,N/A,Rain,Light Rain,60,2013-02-23 09:55:00
5:15 AM,42.8,37.4,81,29.91,5.0,Calm,Calm,-,N/A,,Light Drizzle,0,2013-02-23 10:15:00
5:35 AM,42.8,37.4,81,29.92,4.0,Calm,Calm,-,N/A,Rain,Light Rain,0,2013-02-23 10:35:00
5:55 AM,42.8,37.4,81,29.94,1.0,Calm,Calm,-,N/A,Rain,Heavy Rain,0,2013-02-23 10:55:00
6:15 AM,42.8,37.4,81,29.94,2.5,South,4.6,-,N/A,,Heavy Drizzle,180,2013-02-23 11:15:00
6:35 AM,42.8,37.4,81,29.93,1.2,SSE,3.5,-,N/A,,Drizzle,150,2013-02-23 11:35:00
6:55 AM,42.8,37.4,81,29.93,2.5,SSE,4.6,-,N/A,,Drizzle,150,2013-02-23 11:55:00
7:15 AM,42.8,37.4,81,29.96,3.0,Calm,Calm,-,N/A,,Light Drizzle,0,2013-02-23 12:15:00
7:35 AM,42.8,37.4,81,29.96,2.0,Calm,Calm,-,N/A,,Heavy Drizzle,0,2013-02-23 12:35:00
7:55 AM,42.8,37.4,81,29.95,1.8,ENE,3.5,-,N/A,Rain,Light Rain,70,2013-02-23 12:55:00
8:15 AM,42.8,39.2,87,29.96,0.5,Calm,Calm,-,N/A,Fog,Fog,0,2013-02-23 13:15:00
8:35 AM,42.8,39.2,87,29.96,3.0,Calm,Calm,-,N/A,,Overcast,0,2013-02-23 13:35:00
8:55 AM,42.8,39.2,87,29.95,1.5,NE,3.5,-,N/A,,Overcast,40,2013-02-23 13:55:00
9:15 AM,42.8,41.0,93,29.95,10.0,ENE,3.5,-,N/A,,Overcast,60,2013-02-23 14:15:00
9:35 AM,44.6,41.0,87,29.95,10.0,ENE,3.5,-,N/A,,Overcast,70,2013-02-23 14:35:00
9:55 AM,44.6,41.0,87,29.95,10.0,Calm,Calm,-,N/A,,Overcast,0,2013-02-23 14:55:00
10:15 AM,44.6,41.0,87,29.94,10.0,NE,3.5,-,N/A,,Overcast,50,2013-02-23 15:15:00
10:35 AM,44.6,41.0,87,29.95,10.0,Calm,Calm,-,N/A,,Overcast,0,2013-02-23 15:35:00
10:55 AM,46.4,41.0,81,29.95,10.0,Calm,Calm,-,N/A,,Overcast,0,2013-02-23 15:55:00
11:15 AM,46.4,41.0,81,29.94,10.0,Calm,Calm,-,N/A,,Overcast,0,2013-02-23 16:15:00
11:35 AM,46.4,41.0,81,29.94,10.0,ESE,4.6,-,N/A,,Overcast,120,2013-02-23 16:35:00
11:55 AM,48.2,41.0,76,29.93,10.0,Calm,Calm,-,N/A,,Overcast,0,2013-02-23 16:55:00
12:15 PM,48.2,41.0,76,29.93,10.0,Calm,Calm,-,N/A,,Overcast,0,2013-02-23 17:15:00
12:35 PM,48.2,41.0,76,29.93,10.0,Calm,Calm,-,N/A,,Overcast,0,2013-02-23 17:35:00
12:55 PM,50.0,41.0,71,29.93,10.0,Calm,Calm,-,N/A,,Overcast,0,2013-02-23 17:55:00
1:15 PM,50.0,41.0,71,29.92,10.0,Calm,Calm,-,N/A,,Overcast,0,2013-02-23 18:15:00
1:35 PM,50.0,41.0,71,29.91,10.0,Calm,Calm,-,N/A,,Overcast,0,2013-02-23 18:35:00
1:55 PM,50.0,41.0,71,29.91,10.0,SSE,3.5,-,N/A,,Overcast,150,2013-02-23 18:55:00
2:15 PM,50.0,41.0,71,29.91,10.0,Calm,Calm,-,N/A,,Overcast,0,2013-02-23 19:15:00
2:35 PM,50.0,41.0,71,29.90,10.0,Calm,Calm,-,N/A,,Overcast,0,2013-02-23 19:35:00
2:55 PM,51.8,41.0,67,29.91,10.0,Calm,Calm,-,N/A,,Overcast,0,2013-02-23 19:55:00
3:15 PM,51.8,41.0,67,29.91,10.0,Calm,Calm,-,N/A,,Overcast,0,2013-02-23 20:15:00
3:35 PM,51.8,41.0,67,29.90,10.0,Calm,Calm,-,N/A,,Overcast,0,2013-02-23 20:35:00
3:55 PM,51.8,41.0,67,29.89,10.0,Calm,Calm,-,N/A,,Overcast,0,2013-02-23 20:55:00
4:15 PM,51.8,42.8,71,29.89,10.0,Calm,Calm,-,N/A,,Overcast,0,2013-02-23 21:15:00
4:35 PM,51.8,42.8,71,29.89,10.0,Calm,Calm,-,N/A,,Overcast,0,2013-02-23 21:35:00
4:55 PM,51.8,42.8,71,29.87,10.0,Calm,Calm,-,N/A,,Overcast,0,2013-02-23 21:55:00
5:15 PM,51.8,42.8,71,29.87,10.0,Calm,Calm,-,N/A,,Overcast,0,2013-02-23 22:15:00
5:35 PM,51.8,42.8,71,29.86,10.0,Calm,Calm,-,N/A,,Overcast,0,2013-02-23 22:35:00
5:55 PM,51.8,42.8,71,29.85,10.0,Calm,Calm,-,N/A,,Overcast,0,2013-02-23 22:55:00
6:15 PM,51.8,42.8,71,29.86,10.0,Calm,Calm,-,N/A,,Overcast,0,2013-02-23 23:15:00
6:35 PM,50.0,44.6,82,29.86,10.0,Calm,Calm,-,N/A,,Overcast,0,2013-02-23 23:35:00
6:55 PM,50.0,44.6,82,29.87,10.0,Calm,Calm,-,N/A,,Overcast,0,2013-02-23 23:55:00
7:15 PM,50.0,44.6,82,29.87,10.0,Calm,Calm,-,N/A,,Overcast,0,2013-02-24 00:15:00
7:35 PM,50.0,44.6,82,29.87,10.0,Calm,Calm,-,N/A,,Overcast,0,2013-02-24 00:35:00
7:55 PM,50.0,44.6,82,29.88,10.0,Calm,Calm,-,N/A,,Overcast,0,2013-02-24 00:55:00
8:15 PM,50.0,44.6,82,29.88,7.0,Calm,Calm,-,N/A,,Overcast,0,2013-02-24 01:15:00
8:35 PM,50.0,44.6,82,29.89,2.5,Calm,Calm,-,N/A,,Haze,0,2013-02-24 01:35:00
8:55 PM,48.2,44.6,87,29.90,1.2,WSW,3.5,-,N/A,,Overcast,250,2013-02-24 01:55:00
9:15 PM,48.2,44.6,87,29.91,1.5,West,3.5,-,N/A,,Overcast,280,2013-02-24 02:15:00
9:35 PM,48.2,44.6,87,29.92,3.0,NW,4.6,-,N/A,,Overcast,310,2013-02-24 02:35:00
9:55 PM,48.2,44.6,87,29.93,4.0,WNW,5.8,-,N/A,,Overcast,300,2013-02-24 02:55:00
10:15 PM,48.2,44.6,87,29.93,3.0,WNW,4.6,-,N/A,,Overcast,300,2013-02-24 03:15:00
10:35 PM,48.2,44.6,87,29.93,2.5,WNW,5.8,-,N/A,,Overcast,300,2013-02-24 03:35:00
10:55 PM,48.2,44.6,87,29.93,2.5,NW,4.6,-,N/A,,Overcast,310,2013-02-24 03:55:00
11:15 PM,46.4,42.8,87,29.92,1.0,Calm,Calm,-,N/A,,Mostly Cloudy,0,2013-02-24 04:15:00
11:35 PM,46.4,42.8,87,29.91,1.0,Calm,Calm,-,N/A,,Overcast,0,2013-02-24 04:35:00
11:55 PM,46.4,42.8,87,29.91,0.5,Calm,Calm,-,N/A,,Haze,0,2013-02-24 04:55:00